Mount Holly, NJ

12:39 AM EDT on May 22, 2018 (GMT -0400)
South Jersey Regional

Weather History for KVAY - March, 2012

Change the Weather History Date:

Tuesday, March 13, 2012

  Actual Average (KPNE) Record (KPNE)
Temperature  
Mean Temperature 65 °F -  
Max Temperature 75 °F 47 °F 78 °F (2006)
Min Temperature 55 °F 30 °F 18 °F (2017)
Growing Degree Days 15 (Base 50)    
Moisture  
Dew Point 52 °F    
Average Humidity 68    
Maximum Humidity 93    
Minimum Humidity 44    
Precipitation  
Precipitation 0.08 in - - ()
Sea Level Pressure  
Sea Level Pressure 30.03 in    
Wind  
Wind Speed 5 mph (SW)    
Max Wind Speed 12 mph    
Max Gust Speed 20 mph    
Visibility 10 miles    
Events Rain    
Averages and records for this station are not official NWS values.
T = Trace of Precipitation, MM = Missing Value Source: NWS Daily Summary

Daily Weather History Graph

Daily Weather History Graph

Search for Another Location

Airport or City:

Astronomy

Mar. 13, 2012 Rise Set
Actual Time 7:13 AM EDT 7:04 PM EDT
Civil Twilight 6:46 AM EDT 7:31 PM EDT
Nautical Twilight 6:15 AM EDT 8:03 PM EDT
Astronomical Twilight 5:43 AM EDT 8:34 PM EDT
Moon 12:33 AM EDT (3/13) 10:24 AM EDT (3/13)
Length of Visible Light 12h 45m
Length of Day
11h 51m
Waning Gibbous, 66% of the Moon is Illuminated
Mar 13
Waning Gibbous
Mar 14
Last Quarter
Mar 22
New
Mar 30
First Quarter
Apr 6
Full

Hourly Weather History & Observations

Time (EDT) Temp. Dew Point Humidity Pressure Visibility Wind Dir Wind Speed Gust Speed Precip Events Conditions
12:54 AM 57.0 °F 46.0 °F 67% 30.12 in 10.0 mi South 3.5 mph - 0.00 in Rain Light Rain
1:54 AM 57.9 °F 48.0 °F 70% 30.10 in 10.0 mi Variable 3.5 mph - 0.00 in   Overcast
2:54 AM 59.0 °F 48.0 °F 67% 30.09 in 10.0 mi SSW 5.8 mph - 0.00 in Rain Light Rain
3:54 AM 59.0 °F 48.0 °F 67% 30.07 in 10.0 mi Calm Calm - 0.00 in   Overcast
4:54 AM 55.0 °F 51.1 °F 86% 30.07 in 6.0 mi South 3.5 mph - 0.04 in Rain Light Rain
5:54 AM 55.0 °F 51.1 °F 86% 30.07 in 10.0 mi Variable 4.6 mph - 0.02 in   Overcast
6:54 AM 55.9 °F 52.0 °F 87% 30.09 in 5.0 mi SW 6.9 mph - 0.02 in Rain Light Rain
8:54 AM 55.0 °F 53.1 °F 93% 30.08 in 9.0 mi Variable 5.8 mph - N/A   Overcast
9:54 AM 57.9 °F 54.0 °F 87% 30.08 in 10.0 mi SSW 4.6 mph - N/A   Mostly Cloudy
10:54 AM 60.1 °F 54.0 °F 80% 30.06 in 10.0 mi SW 8.1 mph - N/A   Clear
11:54 AM 64.9 °F 54.0 °F 68% 30.05 in 10.0 mi SW 11.5 mph - N/A   Mostly Cloudy
12:54 PM 66.9 °F 54.0 °F 63% 30.04 in 10.0 mi WSW 6.9 mph - N/A   Overcast
1:54 PM 71.1 °F 54.0 °F 55% 30.01 in 10.0 mi WSW 10.4 mph - N/A   Partly Cloudy
2:54 PM 75.0 °F 55.0 °F 50% 29.98 in 10.0 mi SW 8.1 mph 17.3 mph N/A   Clear
4:54 PM 75.0 °F 52.0 °F 44% 29.95 in 10.0 mi WSW 11.5 mph 19.6 mph N/A   Partly Cloudy
5:54 PM 75.0 °F 53.1 °F 46% 29.95 in 10.0 mi SW 10.4 mph - N/A   Clear
6:54 PM 71.1 °F 52.0 °F 51% 29.96 in 10.0 mi Variable 3.5 mph - N/A   Clear
7:54 PM 68.0 °F 53.1 °F 59% 29.97 in 10.0 mi SSW 3.5 mph - N/A   Clear
8:54 PM 66.9 °F 53.1 °F 61% 29.99 in 10.0 mi SSW 4.6 mph - N/A   Clear
9:54 PM 64.0 °F 54.0 °F 70% 30.00 in 10.0 mi SSW 4.6 mph - N/A   Clear
10:54 PM 64.9 °F 55.0 °F 70% 30.01 in 10.0 mi SW 4.6 mph - N/A   Clear
11:54 PM 63.0 °F 55.0 °F 75% 30.01 in 10.0 mi SW 4.6 mph - N/A   Clear